570  
ASUS45 KBOU 262310  
RWRCO  
 
WEATHER ROUNDUP FOR COLORADO  
NATIONAL WEATHER SERVICE DENVER/BOULDER CO  
400 PM MST SAT NOV 26 2022  
 
NOTE: "FAIR" INDICATES FEW OR NO CLOUDS BELOW 12000 FEET WITH NO  
SIGNIFICANT WEATHER AND/OR S TO VISIBILITY
.  
 
COZ001>005-013-030-031-270000-   
..NORTHWEST COLORADO
 
 
 
CITY SKY/WX TMP DP RH WIND PRES REMARKS
 
CRAIG MOCLDY 40 21 46 N10 30.01S  
HAYDEN CLOUDY 37 20 50 W9 30.01R  
MEEKER NOT AVBL  
RANGELY N/A N/A N/A N/A MISG N/A  
RABBIT EARS PA NOT AVBL  
STEAMBOAT SPGS MOCLDY 37 21 52 SW5 29.97S  
WALDEN MOCLDY 32 19 59 N23 29.98R WCI 19  

 
 
COZ006>008-011-270000-   
..WEST CENTRAL VALLEYS
 
 
 
CITY SKY/WX TMP DP RH WIND PRES REMARKS
 
GRAND JUNCTION FAIR 44 22 41 NW8 29.97S  
MONTROSE FAIR 44 17 33 W9 29.96R  
EAGLE FAIR 42 18 37 SW3 29.96S  
RIFLE FAIR 43 21 41 W5 29.95F  
DELTA FAIR 49 19 30 E5 29.95S  
NUCLA NOT AVBL  

 
 
COZ017>023-064>068-270000-   
..SOUTHWEST COLORADO
 
 
 
CITY SKY/WX TMP DP RH WIND PRES REMARKS
 
DURANGO FAIR 50 15 24 SW10 29.89F  
CORTEZ FAIR 46 12 25 W14 29.94F  
PAGOSA SPRINGS FAIR 45 12 26 CALM 29.93F  
TELLURIDE FAIR 39 9 28 W16G23 29.99S  
WOLF CREEK PAS FAIR 30 9 40 W8 30.07F WCI 23  

 
 
COZ009-010-012-014-032>034-037-058>063-270000-   
..CENTRAL COLORADO
 
 
 
CITY SKY/WX TMP DP RH WIND PRES REMARKS
 
ASPEN FAIR 40 16 37 NW8 29.94S  
BUENA VISTA N/A 49 10 21 NW13G23 29.86S  
COPPER MTN MOCLDY 28 12 50 NW10G17 30.03S WCI 19  
BERTHOUD PASS MOCLDY 18 10 73 N9G22 30.03R WCI 6  
DAKOTA HILL FAIR 27 12 54 NW9 30.00R WCI 17  
COTTONWOOD PAS FAIR 41 9 26 W14G23 29.94R  
GUNNISON FAIR 45 13 27 CALM 29.92R  
GRANBY FAIR 37 17 46 W5 29.97S  
KREMMLING FAIR 36 19 51 CALM 29.97S  
LEADVILLE FAIR 34 12 40 N8 29.95S WCI 27  
SALIDA FAIR 50 11 21 W14G20 29.92S  
SUNLIGHT CLOUDY 27 12 54 W13G20 30.04F WCI 16  
WILKERSON PASS FAIR 30 10 43 N8 30.00S WCI 23  

 
 
COZ069>075-270000-   
..SAN LUIS VALLEY/SANGRE DE CRISTO MOUNTAINS
 
 
 
CITY SKY/WX TMP DP RH WIND PRES REMARKS
 
ALAMOSA FAIR 47 11 23 CALM 29.87S  
DEL NORTE FAIR 43 19 37 NE7 29.89S  
LA VETA PASS FAIR 34 12 40 W3 29.95S  
SAGUACHE N/A 45 12 26 NW13G21 29.91S  

 
 
COZ035-036-038>040-270000-   
..NORTHERN COLORADO FRONT RANGE
 
 
 
CITY SKY/WX TMP DP RH WIND PRES REMARKS
 
DENVER INTL AP MOCLDY 50 20 30 NE17G29 29.88R  
AURORA PTCLDY 49 19 30 NE13 29.86R  
WATKINS NOT AVBL  
ERIE FAIR 54 19 25 NE15G23 29.88R  
BOULDER FAIR 52 21 30 NE8 29.87R  
CENTENNIAL MOCLDY 50 19 29 NE13 29.88R  
BROOMFIELD PTCLDY 55 19 24 NE23G29 29.88R  
FORT COLLINS MOCLDY 52 20 28 NE16G22 29.88R  
LONGMONT FAIR 55 20 26 NE17G23 29.90R  

 
 
COZ041-046-047-076>085-087-088-270000-   
..PIKES PEAK/PALMER DIVIDE AND SOUTHERN FOOTHILLS
 
 
 
CITY SKY/WX TMP DP RH WIND PRES REMARKS
 
COLO. SPRINGS MOCLDY 53 18 25 N18G30 29.85R  
A. F. ACADEMY FAIR 49 15 25 N18 29.83R  
SCHRIEVER AFB NOT AVBL  
CHEYENNE MTN FAIR 47 16 28 N17G28 29.58F  
ELLICOTT FAIR 51 15 24 N21G32 29.82R  
FALCON FAIR 46 16 30 N23G30 29.85S  
FORT CARSON FAIR 53 15 22 NE18 29.80R  
LIMON FAIR 50 18 28 N24G33 29.81S  
MONUMENT HILL FAIR 43 18 36 N13G21 29.91R  
CANON CITY FAIR 59 19 21 E15G24 29.76R  
WALSENBURG NOT AVBL  
TRINIDAD FAIR 55 22 27 NE8 29.78S  

 
 
COZ042>045-048>051-090-091-270000-   
..NORTHEAST COLORADO
 
 
 
CITY SKY/WX TMP DP RH WIND PRES REMARKS
 
GREELEY FAIR 52 21 29 N16 29.88R  
AKRON FAIR 50 21 32 N21G29 29.84R  
BURLINGTON FAIR 54 18 24 N15 29.76R  
WRAY FAIR 55 21 26 N18G28 29.79R  
YUMA NOT AVBL  
STERLING FAIR 52 23 32 N16G25 29.84R  
HOLYOKE FAIR 55 23 28 NE17G25 29.82R  
FORT MORGAN FAIR 50 19 29 NE18G30 29.85R  

 
 
COZ086-089-092>099-270000-   
..SOUTHEAST COLORADO
 
 
 
CITY SKY/WX TMP DP RH WIND PRES REMARKS
 
PUEBLO FAIR 59 16 18 NE24G33 29.76R  
LA JUNTA FAIR 59 18 20 N20G30 29.74R  
LAMAR FAIR 57 13 17 W3 29.70S  
SPRINGFIELD N/A 55 13 18 N5 29.71S  

 
 
 
CLICK HERE TO GO TO PREVIOUS BULLETINS.

The Nexlab CO Page Main Text Page